Location: Slidell
(30.2789°N, 89.7378°W)
Time: 03:44:47
(UTC-05:00)

Cosmos 2360 Rocket - Visible Passes

Search period start: 28 August 2016 00:00
Search period end: 07 September 2016 00:00
Orbit: 832 x 847 km, 71.0° (Epoch: 28 August)

Date Brightness Start Highest point End Pass type
(mag) Time Alt. Az. Time Alt. Az. Time Alt. Az.
31 Aug 5.0 23:24:17 11° NNW 23:24:17 11° NNW 23:24:38 10° N visible
01 Sep 4.8 23:08:08 14° NNW 23:08:08 14° NNW 23:09:05 10° N visible
02 Sep 4.5 22:51:43 18° NNW 22:51:43 18° NNW 22:53:31 10° N visible
03 Sep 4.1 20:53:08 14° NE 20:53:08 14° NE 20:53:58 10° NE visible
03 Sep 4.1 22:34:45 25° NNW 22:34:45 25° NNW 22:37:58 10° N visible
04 Sep 3.2 20:34:31 25° E 20:34:31 25° E 20:38:12 10° NE visible
04 Sep 3.7 22:15:46 27° W 22:17:21 32° WNW 22:22:23 10° N visible
05 Sep 3.1 20:13:30 10° SSE 20:17:57 24° ESE 20:22:25 10° NE visible
05 Sep 3.7 21:56:36 10° SW 22:01:41 34° WNW 22:06:48 10° N visible
06 Sep 3.2 19:58:02 10° SSE 20:02:20 23° E 20:06:37 10° NE visible
06 Sep 3.6 21:40:50 10° SW 21:46:00 37° WNW 21:51:13 10° N visible
